Showing default

PELICAN-5, 66667

Orbit data source: Space-Track

PELICAN-5, 66667 is a payload satellite owned by Planet (US) in SSO that was launched on Fri, 28 Nov 2025 UTC via an FALCON 9 launch vehicle from the Air Force Western Test Range (AFWTR). Payload-class satellites include a variety of spacecraft equipped with specific instruments for various scientific and technological missions. These include communications satellites like Starlink; space stations such as the ISS; scientific satellites like the Hubble; Earth observation satellites from companies like Planet Labs, Umbra, and HawkEye 360; GPS; miniature CubeSats for education and research; and military/defense satellites.

Loading next visibility...
Identifier
66667, 2025-276B
Orbit
SSO
Country
Flag of USUS
Related business
Manufacturer
Planet
Mission
Operational Commercial Imaging
Bus & Motor
PELICAN, XE AOCS
Mass
160 kg wet, 146 kg dry
Launch date (UTC)
2025-11-28 (2 months ago)
Launch vehicle
FALCON 9
Launch site
Air Force Western Test Range (AFWTR)
Object type
Payload
Rocket body
Debris
Shape & HBR
Box + 2 Pan, 1.0 m
Radar Cross Section
1.955 m²

Expand to show TLE details & history
Last TLE update: 21 hours ago

TLE from 21 hours ago
0 PELICAN-5
1 66667U 25276B   26034.21582814  .00004887  00000-0  24377-3 0  9992
2 66667  97.4355 110.0798 0004545  91.9942 268.1813 15.17972369 10082
Epoch: 2026-02-03T05:10Z
TLE epoch observation values (Epoch: 2026-02-03T05:10:47.551Z)
Latitude
0.00004°
Longitude
-101.01829°
Altitude
515.157 km
Speed
7.606 km/s
True Right ascension
07h 20m 19s
True Declination
0° 00' 00"
Sunlit
Object was in full shadow at epoch
Visualization orbit readout
Latitude
Unknown
Longitude
Unknown
Altitude
Unknown
Speed
Unknown
Apparent Right ascension
Unknown
Apparent Declination
Unknown
Sunlit
N/A
Visualization observer readout
Local Sidereal Time
04:10:50
Azimuth
Unknown
Elevation
Unknown
Doppler factor
Unknown
Orbital elements
Apogee altitude
512.069 km
Perigee altitude
505.809 km
Semi-major axis
6,887.076 km
Eccentricity
0.00045
Inclination
97.4355°
RAAN
110.0798°
Arg. of periapsis
91.9942°
True anomaly
268.12925°
Mean anomaly
268.1813°
Eccentric anomaly
268.15527°
Mean motion
3.79744 °/min
Orbital period
94.8 mins
BSTAR
0.00024377
Loading maneuver chart data...
Computing Atmospheric mass density...
Loading historical data...
Loading historical data...
Loading historical data...
Loading historical data...
Loading historical data...
Loading historical data...
Loading historical data...

Documentation

Showing up to 5 results
|